sat.trackr.live / text

‹ back to catalog

STARLINK-35071

NORAD 65477 · 2025-195V

PAYLOAD ACTIVE UNKNOWN

§ Identity

Operator
Country
US
Launch date
2025-09-03
Launch site
AFETR
Launch vehicle
Mass (kg)
RCS (m²)

Purposes: comms

External: N2YO · Heavens-Above · Gunter

§ Orbital elements

Epoch: 2026-09-20T22:04:10.559424Z

Period
93.85 min
Inclination
53.1595°
Eccentricity
0.0003336
Mean motion
15.34408455 rev/d
Perigee alt
460.4 km
Apogee alt
465.0 km
Semi-major
6,840.8 km
B*
4.6348e-4
RAAN
67.8509°
Arg perigee
56.2486°
Mean anomaly
303.8834°
Rev number
5,991

§ Raw data

STARLINK-350711 65477U 25195V   26263.91956666  .00015320  00000+0  46348-3 0  99962 65477  53.1595  67.8509 0003336  56.2486 303.8834 15.34408455 59912

JSON: /api/v1/satellites/65477 · /tle

For live sub-satellite position, see the globe view (requires WebGL).

§ Visibility from observer

Set your observer location to see the next 7 days of passes ≥ 10°. The values pass through the URL so the page stays shareable.

No JS? Fill the form by hand. The geolocation button needs JavaScript.